Ocean City, MD

9:16 AM EDT on May 30, 2017 (GMT -0400)
Ocean City Municipal

Weather History for KOXB - April, 2013

Change the Weather History Date:

Monday, April 22, 2013

  Actual Average (KSBY) Record (KSBY)
Temperature  
Mean Temperature 47 °F -  
Max Temperature 52 °F 66 °F 94 °F (1985)
Min Temperature 43 °F 46 °F 30 °F (1975)
Degree Days  
Heating Degree Days 18    
Moisture  
Dew Point 41 °F    
Average Humidity 77    
Maximum Humidity 90    
Minimum Humidity 65    
Precipitation  
Precipitation 0.00 in - - ()
Sea Level Pressure  
Sea Level Pressure 30.47 in    
Wind  
Wind Speed 15 mph (NE)    
Max Wind Speed 24 mph    
Max Gust Speed 36 mph    
Visibility 10 miles    
Events      
Averages and records for this station are not official NWS values.
T = Trace of Precipitation, MM = Missing Value Source: NWS Daily Summary

Daily Weather History Graph

Daily Weather History Graph

Search for Another Location

Airport or City:

Trip Planner

Search our weather history database for the weather conditions in past years. The results will help you decide how hot, cold, wet, or windy it might be!

Date:

Astronomy

Apr. 22, 2013 Rise Set
Actual Time 6:14 AM EDT 7:43 PM EDT
Civil Twilight 5:47 AM EDT 8:11 PM EDT
Nautical Twilight 5:13 AM EDT 8:45 PM EDT
Astronomical Twilight 4:38 AM EDT 9:20 PM EDT
Moon 4:32 PM EDT (4/22) 4:05 AM EDT (4/22)
Length of Visible Light 14h 24m
Length of Day
13h 28m
Waxing Gibbous, 87% of the Moon is Illuminated
Apr 22
Waxing Gibbous
Apr 25
Full
May 2
Last Quarter
May 9
New
May 18
First Quarter

Hourly Weather History & Observations

Time (EDT) Temp. Windchill Dew Point Humidity Pressure Visibility Wind Dir Wind Speed Gust Speed Precip Events Conditions
12:53 AM 43.0 °F 36.8 °F 32.0 °F 65% 30.57 in 10.0 mi East 11.5 mph - N/A   Clear
1:53 AM 43.0 °F 37.7 °F 35.1 °F 74% 30.53 in 10.0 mi ENE 9.2 mph 18.4 mph N/A   Clear
2:53 AM 44.1 °F 39.0 °F 37.0 °F 76% 30.52 in 10.0 mi ENE 9.2 mph - N/A   Clear
3:53 AM 45.0 °F 39.3 °F 37.9 °F 76% 30.53 in 10.0 mi NE 11.5 mph 20.7 mph N/A   Partly Cloudy
4:53 AM 46.0 °F 40.2 °F 39.0 °F 76% 30.51 in 10.0 mi ENE 12.7 mph - N/A   Mostly Cloudy
5:53 AM 46.0 °F 39.6 °F 39.0 °F 76% 30.50 in 10.0 mi ENE 15.0 mph 20.7 mph N/A   Partly Cloudy
6:53 AM 46.9 °F - 37.9 °F 71% 30.52 in 10.0 mi East 18.4 mph 26.5 mph N/A   Clear
7:53 AM 48.0 °F - 39.9 °F 74% 30.51 in 10.0 mi ENE 16.1 mph 26.5 mph N/A   Partly Cloudy
8:53 AM 48.9 °F - 39.0 °F 69% 30.51 in 10.0 mi ENE 13.8 mph 25.3 mph N/A   Partly Cloudy
9:53 AM 48.9 °F - 41.0 °F 74% 30.52 in 10.0 mi ENE 18.4 mph 28.8 mph N/A   Mostly Cloudy
10:33 AM 50.0 °F - 42.8 °F 76% 30.51 in 10.0 mi ENE 16.1 mph 21.9 mph N/A   Mostly Cloudy
10:41 AM 50.0 °F - 41.0 °F 71% 30.52 in 10.0 mi ENE 18.4 mph 27.6 mph N/A   Mostly Cloudy
10:51 AM 51.8 °F - 41.0 °F 67% 30.51 in 10.0 mi NE 16.1 mph 29.9 mph N/A   Overcast
10:53 AM 51.1 °F - 41.0 °F 68% 30.51 in 10.0 mi ENE 18.4 mph 29.9 mph N/A   Overcast
11:53 AM 50.0 °F - 42.1 °F 74% 30.49 in 10.0 mi NE 19.6 mph 32.2 mph N/A   Overcast
12:53 PM 50.0 °F - 41.0 °F 71% 30.48 in 10.0 mi NE 20.7 mph 29.9 mph N/A   Overcast
1:53 PM 50.0 °F - 42.1 °F 74% 30.48 in 10.0 mi NE 17.3 mph 29.9 mph N/A   Overcast
2:53 PM 51.1 °F - 42.1 °F 71% 30.44 in 10.0 mi NE 20.7 mph 31.1 mph N/A   Overcast
3:53 PM 48.9 °F - 41.0 °F 74% 30.43 in 10.0 mi NE 23.0 mph 33.4 mph N/A   Overcast
4:38 PM 48.2 °F - 42.8 °F 82% 30.42 in 10.0 mi NE 24.2 mph 35.7 mph N/A   Overcast
4:53 PM 48.9 °F - 42.1 °F 77% 30.41 in 10.0 mi NE 21.9 mph 34.5 mph N/A   Overcast
5:30 PM 48.2 °F - 42.8 °F 82% 30.41 in 10.0 mi NE 20.7 mph 31.1 mph N/A   Overcast
5:53 PM 46.9 °F - 42.1 °F 83% 30.41 in 10.0 mi NE 18.4 mph 28.8 mph N/A   Overcast
6:53 PM 46.9 °F - 42.1 °F 83% 30.40 in 9.0 mi NE 19.6 mph 29.9 mph N/A   Overcast
7:53 PM 46.9 °F - 42.1 °F 83% 30.40 in 9.0 mi NE 17.3 mph 29.9 mph N/A   Overcast
8:53 PM 46.9 °F - 43.0 °F 86% 30.39 in 9.0 mi NE 19.6 mph 31.1 mph N/A   Overcast
9:53 PM 46.9 °F - 44.1 °F 90% 30.38 in 8.0 mi NE 17.3 mph 28.8 mph N/A   Overcast
10:53 PM 46.9 °F - 44.1 °F 90% 30.38 in 7.0 mi NE 18.4 mph 28.8 mph N/A   Overcast
11:53 PM 46.9 °F - 44.1 °F 90% 30.36 in 7.0 mi ENE 13.8 mph 26.5 mph N/A   Overcast